TimeEDT,TemperatureF,Dew PointF,Humidity,Sea Level PressureIn,VisibilityMPH,Wind Direction,Wind SpeedMPH,Gust SpeedMPH,PrecipitationIn,Events,Conditions,WindDirDegrees,DateUTC
12:15 AM,44.6,44.6,100,29.96,10.0,Calm,Calm,-,N/A,,Clear,0,2012-10-01 04:15:00
12:35 AM,43.5,43.3,99,29.96,10.0,Calm,Calm,-,N/A,,Clear,0,2012-10-01 04:35:00
12:55 AM,42.8,42.8,100,29.94,10.0,Calm,Calm,-,N/A,,Clear,0,2012-10-01 04:55:00
1:15 AM,42.6,42.6,100,29.93,10.0,Calm,Calm,-,N/A,,Clear,0,2012-10-01 05:15:00
1:35 AM,41.2,41.2,100,29.94,7.0,Calm,Calm,-,N/A,,Clear,0,2012-10-01 05:35:00
1:55 AM,41.7,41.7,100,29.94,2.5,Calm,Calm,-,N/A,,Clear,0,2012-10-01 05:55:00
2:15 AM,42.8,42.8,100,29.94,0.8,Calm,Calm,-,N/A,,Mist,0,2012-10-01 06:15:00
2:35 AM,41.0,41.0,100,29.94,10.0,Calm,Calm,-,N/A,,Clear,0,2012-10-01 06:35:00
2:55 AM,40.5,40.5,100,29.94,1.0,Calm,Calm,-,N/A,,Mist,0,2012-10-01 06:55:00
3:36 AM,41.0,41.0,100,29.94,7.0,Calm,Calm,-,N/A,,Clear,0,2012-10-01 07:36:00
3:55 AM,40.1,40.1,100,29.94,0.8,Calm,Calm,-,N/A,,Mist,0,2012-10-01 07:55:00
4:35 AM,39.2,39.2,100,29.93,-9999.0,Calm,Calm,-,N/A,,Unknown,0,2012-10-01 08:35:00
4:55 AM,38.8,38.8,100,29.93,-9999.0,Calm,Calm,-,N/A,,Unknown,0,2012-10-01 08:55:00
5:15 AM,39.9,39.9,100,29.94,2.5,Calm,Calm,-,N/A,,Scattered Clouds,0,2012-10-01 09:15:00
5:55 AM,39.4,39.4,100,29.94,10.0,Calm,Calm,-,N/A,,Overcast,0,2012-10-01 09:55:00
6:15 AM,39.4,39.4,100,29.94,3.0,Calm,Calm,-,N/A,,Overcast,0,2012-10-01 10:15:00
6:35 AM,39.4,39.4,100,29.94,10.0,Calm,Calm,-,N/A,,Overcast,0,2012-10-01 10:35:00
6:55 AM,39.2,39.2,100,29.94,0.5,Calm,Calm,-,N/A,Fog,Fog,0,2012-10-01 10:55:00
7:15 AM,38.8,38.8,100,29.96,0.8,Calm,Calm,-,N/A,,Mist,0,2012-10-01 11:15:00
7:35 AM,38.3,38.3,100,29.94,2.5,Calm,Calm,-,N/A,,Mostly Cloudy,0,2012-10-01 11:35:00
7:55 AM,38.7,38.7,100,29.95,5.0,Calm,Calm,-,N/A,,Overcast,0,2012-10-01 11:55:00
8:16 AM,40.3,40.3,100,29.96,7.0,Calm,Calm,-,N/A,,Scattered Clouds,0,2012-10-01 12:16:00
8:35 AM,40.8,40.8,100,29.96,10.0,Calm,Calm,-,N/A,,Clear,0,2012-10-01 12:35:00
9:15 AM,45.1,45.1,100,29.96,10.0,Calm,Calm,-,N/A,,Clear,0,2012-10-01 13:15:00
9:35 AM,46.4,46.4,100,29.96,10.0,Calm,Calm,-,N/A,,Clear,0,2012-10-01 13:35:00
9:55 AM,49.3,49.3,100,29.96,10.0,Calm,Calm,-,N/A,,Clear,0,2012-10-01 13:55:00
10:15 AM,53.1,53.1,100,29.96,10.0,Calm,Calm,-,N/A,,Clear,0,2012-10-01 14:15:00
10:35 AM,56.8,52.0,84,29.94,10.0,Calm,Calm,-,N/A,,Clear,0,2012-10-01 14:35:00
11:15 AM,61.3,49.5,65,29.94,10.0,Calm,Calm,-,N/A,,Clear,0,2012-10-01 15:15:00
11:35 AM,61.7,46.2,57,29.95,10.0,Calm,Calm,-,N/A,,Clear,0,2012-10-01 15:35:00
11:55 AM,64.8,46.2,51,29.94,10.0,NNE,3.5,-,N/A,,Clear,20,2012-10-01 15:55:00
12:15 PM,64.4,44.4,48,29.93,10.0,WNW,5.8,-,N/A,,Clear,300,2012-10-01 16:15:00
12:35 PM,64.4,44.1,48,29.92,10.0,Calm,Calm,-,N/A,,Clear,0,2012-10-01 16:35:00
12:56 PM,65.3,43.7,46,29.92,10.0,Calm,Calm,-,N/A,,Clear,0,2012-10-01 16:56:00
1:15 PM,64.2,43.3,47,29.92,10.0,Calm,Calm,-,N/A,,Clear,0,2012-10-01 17:15:00
1:35 PM,65.1,42.4,44,29.91,10.0,Calm,Calm,-,N/A,,Clear,0,2012-10-01 17:35:00
1:55 PM,66.0,42.3,42,29.90,10.0,ENE,3.5,-,N/A,,Clear,60,2012-10-01 17:55:00
2:15 PM,66.2,41.7,41,29.89,10.0,Calm,Calm,-,N/A,,Clear,0,2012-10-01 18:15:00
2:36 PM,67.1,41.4,39,29.89,10.0,NE,3.5,-,N/A,,Clear,50,2012-10-01 18:36:00
2:55 PM,66.0,41.7,41,29.88,10.0,Calm,Calm,-,N/A,,Clear,0,2012-10-01 18:55:00
3:15 PM,66.2,41.5,41,29.87,10.0,Calm,Calm,-,N/A,,Clear,0,2012-10-01 19:15:00
3:55 PM,67.3,41.4,39,29.86,10.0,Calm,Calm,-,N/A,,Clear,0,2012-10-01 19:55:00
4:15 PM,66.6,41.7,40,29.87,10.0,SSW,4.6,-,N/A,,Clear,200,2012-10-01 20:15:00
4:35 PM,67.3,41.9,40,29.87,10.0,Calm,Calm,-,N/A,,Clear,0,2012-10-01 20:35:00
4:55 PM,66.4,39.9,38,29.85,10.0,Calm,Calm,-,N/A,,Clear,0,2012-10-01 20:55:00
5:15 PM,66.2,40.1,38,29.86,10.0,NE,3.5,-,N/A,,Clear,50,2012-10-01 21:15:00
5:35 PM,66.2,41.0,40,29.86,10.0,Calm,Calm,-,N/A,,Clear,0,2012-10-01 21:35:00
6:16 PM,65.3,42.6,44,29.86,10.0,Calm,Calm,-,N/A,,Clear,0,2012-10-01 22:16:00
6:35 PM,63.7,44.8,50,29.86,10.0,Calm,Calm,-,N/A,,Clear,0,2012-10-01 22:35:00
7:15 PM,59.0,49.1,70,29.86,10.0,Calm,Calm,-,N/A,,Clear,0,2012-10-01 23:15:00
7:35 PM,57.6,48.0,70,29.86,10.0,Calm,Calm,-,N/A,,Clear,0,2012-10-01 23:35:00
7:55 PM,56.3,48.0,74,29.87,10.0,Calm,Calm,-,N/A,,Clear,0,2012-10-01 23:55:00
8:15 PM,55.8,48.6,77,29.87,10.0,Calm,Calm,-,N/A,,Clear,0,2012-10-02 00:15:00
8:36 PM,53.2,48.2,83,29.87,10.0,Calm,Calm,-,N/A,,Clear,0,2012-10-02 00:36:00
8:55 PM,53.6,48.4,82,29.87,10.0,Calm,Calm,-,N/A,,Clear,0,2012-10-02 00:55:00
9:15 PM,53.2,49.3,86,29.87,10.0,Calm,Calm,-,N/A,,Clear,0,2012-10-02 01:15:00
9:35 PM,53.4,49.3,86,29.87,10.0,Calm,Calm,-,N/A,,Clear,0,2012-10-02 01:35:00
9:55 PM,54.0,49.6,85,29.87,10.0,Calm,Calm,-,N/A,,Clear,0,2012-10-02 01:55:00
10:15 PM,52.7,49.3,88,29.87,10.0,Calm,Calm,-,N/A,,Clear,0,2012-10-02 02:15:00
10:35 PM,51.8,49.3,91,29.87,10.0,Calm,Calm,-,N/A,,Clear,0,2012-10-02 02:35:00
10:55 PM,52.5,49.1,88,29.87,10.0,Calm,Calm,-,N/A,,Clear,0,2012-10-02 02:55:00
11:35 PM,52.0,49.3,90,29.87,10.0,Calm,Calm,-,N/A,,Clear,0,2012-10-02 03:35:00
11:55 PM,52.2,50.2,93,29.87,10.0,Calm,Calm,-,N/A,,Clear,0,2012-10-02 03:55:00